STARLINK-5697, 55589

Orbit data source: Space-Track

STARLINK-5697, 55589 is a payload satellite owned by SpaceX/Seattle (US) in LEO that was launched on Sun, 12 Feb 2023 UTC via an FALCON 9 launch vehicle from the Air Force Eastern Test Range (AFETR). Payload-class satellites include a variety of spacecraft equipped with specific instruments for various scientific and technological missions. These include communications satellites like Starlink; space stations such as the ISS; scientific satellites like the Hubble; Earth observation satellites from companies like Planet Labs, Umbra, and HawkEye 360; GPS; miniature CubeSats for education and research; and military/defense satellites.

Loading next visibility...
Identifier
55589, 2023-020W
Orbit
LEO
Country
Flag of USUS
Related business
Manufacturer
SpaceX/Seattle
Mission
Operational Commercial Communications
Bus & Motor
STARLINK, Unknown motor
Mass
305 kg wet, ~290 kg dry
Launch date (UTC)
2023-02-12 (3 years ago)
Launch vehicle
FALCON 9
Launch site
Air Force Eastern Test Range (AFETR)
Object type
Payload
Rocket body
Debris
Shape & HBR
Box + 1 Pan, 10.1 m
Radar Cross Section
13.562 m², Large (>1 m²)

Expand to show TLE details & history
Last TLE update: 8 hours ago

TLE from 8 hours ago
0 STARLINK-5697
1 55589U 23020W   26061.99470880 -.00000189  00000-0  11026-5 0  9993
2 55589  43.0039  40.8941 0001101 277.5385  82.5332 15.02531601167910
Epoch: 2026-03-02T23:52Z
TLE epoch observation values (Epoch: 2026-03-02T23:52:22.840Z)
Latitude
-0.00003°
Longitude
-117.98123°
Altitude
558.772 km
Speed
7.584 km/s
True Right ascension
02h 43m 34s
True Declination
0° 00' 00"
Sunlit
Object was in daylight at epoch
Visualization orbit readout
Latitude
Unknown
Longitude
Unknown
Altitude
Unknown
Speed
Unknown
Apparent Right ascension
Unknown
Apparent Declination
Unknown
Sunlit
N/A
Visualization observer readout
Local Sidereal Time
11:25:13
Azimuth
Unknown
Elevation
Unknown
Doppler factor
Unknown
Orbital elements
Apogee altitude
561.78 km
Perigee altitude
560.252 km
Semi-major axis
6,939.153 km
Eccentricity
0.00011
Inclination
43.0039°
RAAN
40.8941°
Arg. of periapsis
277.5385°
True anomaly
82.54571°
Mean anomaly
82.5332°
Eccentric anomaly
82.53945°
Mean motion
3.75477 °/min
Orbital period
95.88 mins
BSTAR
0.0000011026
Loading maneuver chart data...
Computing Atmospheric mass density...
Loading historical data...
Loading historical data...
Loading historical data...
Loading historical data...
Loading historical data...
Loading historical data...
Loading historical data...

Documentation

Showing up to 5 results
|